Year,Month,Day,Hour,Minute,Value (Times are PST for temperature in C)
2012,07,08,00,00,13.60
2012,07,08,00,01,13.60
2012,07,08,00,02,13.60
2012,07,08,00,03,13.60
2012,07,08,00,04,13.60
2012,07,08,00,05,13.60
2012,07,08,00,06,13.50
2012,07,08,00,07,13.50
2012,07,08,00,08,13.50
2012,07,08,00,09,13.50
2012,07,08,00,10,13.40
2012,07,08,00,11,13.40
2012,07,08,00,12,13.40
2012,07,08,00,13,13.40
2012,07,08,00,14,13.40
2012,07,08,00,15,13.40
2012,07,08,00,16,13.40
2012,07,08,00,17,13.40
2012,07,08,00,18,13.40
2012,07,08,00,19,13.40
2012,07,08,00,20,13.30
2012,07,08,00,21,13.30
2012,07,08,00,22,13.30
2012,07,08,00,23,13.30
2012,07,08,00,24,13.30
2012,07,08,00,25,13.20
2012,07,08,00,26,13.20
2012,07,08,00,27,13.20
2012,07,08,00,28,13.20
2012,07,08,00,29,13.20
2012,07,08,00,30,13.20
2012,07,08,00,31,13.20
2012,07,08,00,32,13.20
2012,07,08,00,33,13.20
2012,07,08,00,34,13.20
2012,07,08,00,35,13.10
2012,07,08,00,36,13.10
2012,07,08,00,37,13.10
2012,07,08,00,38,13.10
2012,07,08,00,39,13.10
2012,07,08,00,40,13.10
2012,07,08,00,41,13.10
2012,07,08,00,42,13.10
2012,07,08,00,43,13.10
2012,07,08,00,44,13.10
2012,07,08,00,45,13.10
2012,07,08,00,46,13.10
2012,07,08,00,47,13.10
2012,07,08,00,48,13.10
2012,07,08,00,49,13.10
2012,07,08,00,50,13.10
2012,07,08,00,51,13.10
2012,07,08,00,52,13.10
2012,07,08,00,53,13.00
2012,07,08,00,54,13.00
2012,07,08,00,55,13.00
2012,07,08,00,56,13.00
2012,07,08,00,57,12.90
2012,07,08,00,58,12.90
2012,07,08,00,59,12.90
2012,07,08,01,00,12.90
2012,07,08,01,01,12.90
2012,07,08,01,02,12.90
2012,07,08,01,03,12.90
2012,07,08,01,04,12.90
2012,07,08,01,05,12.80
2012,07,08,01,06,12.80
2012,07,08,01,07,12.80
2012,07,08,01,08,12.80
2012,07,08,01,09,12.80
2012,07,08,01,10,12.80
2012,07,08,01,11,12.80
2012,07,08,01,12,12.80
2012,07,08,01,13,12.80
2012,07,08,01,14,12.70
2012,07,08,01,15,12.70
2012,07,08,01,16,12.70
2012,07,08,01,17,12.70
2012,07,08,01,18,12.70
2012,07,08,01,19,12.70
2012,07,08,01,20,12.70
2012,07,08,01,21,12.70
2012,07,08,01,22,12.70
2012,07,08,01,23,12.70
2012,07,08,01,24,12.70
2012,07,08,01,25,12.70
2012,07,08,01,26,12.70
2012,07,08,01,27,12.70
2012,07,08,01,28,12.70
2012,07,08,01,29,12.60
2012,07,08,01,30,12.60
2012,07,08,01,31,12.60
2012,07,08,01,32,12.60
2012,07,08,01,33,12.60
2012,07,08,01,34,12.60
2012,07,08,01,35,12.60
2012,07,08,01,36,12.50
2012,07,08,01,37,12.50
2012,07,08,01,38,12.50
2012,07,08,01,39,12.40
2012,07,08,01,40,12.40
2012,07,08,01,41,12.40
2012,07,08,01,42,12.40
2012,07,08,01,43,12.40
2012,07,08,01,44,12.40
2012,07,08,01,45,12.40
2012,07,08,01,46,12.40
2012,07,08,01,47,12.40
2012,07,08,01,48,12.40
2012,07,08,01,49,12.40
2012,07,08,01,50,12.40
2012,07,08,01,51,12.40
2012,07,08,01,52,12.40
2012,07,08,01,53,12.40
2012,07,08,01,54,12.50
2012,07,08,01,55,12.50
2012,07,08,01,56,12.40
2012,07,08,01,57,12.40
2012,07,08,01,58,12.40
2012,07,08,01,59,12.40
2012,07,08,02,00,12.40
2012,07,08,02,01,12.40
2012,07,08,02,02,12.40
2012,07,08,02,03,12.30
2012,07,08,02,04,12.30
2012,07,08,02,05,12.40
2012,07,08,02,06,12.40
2012,07,08,02,07,12.40
2012,07,08,02,08,12.40
2012,07,08,02,09,12.40
2012,07,08,02,10,12.40
2012,07,08,02,11,12.40
2012,07,08,02,12,12.40
2012,07,08,02,13,12.40
2012,07,08,02,14,12.40
2012,07,08,02,15,12.40
2012,07,08,02,16,12.30
2012,07,08,02,17,12.30
2012,07,08,02,18,12.30
2012,07,08,02,19,12.30
2012,07,08,02,20,12.20
2012,07,08,02,21,12.20
2012,07,08,02,22,12.20
2012,07,08,02,23,12.20
2012,07,08,02,24,12.20
2012,07,08,02,25,12.20
2012,07,08,02,26,12.20
2012,07,08,02,27,12.20
2012,07,08,02,28,12.30
2012,07,08,02,29,12.30
2012,07,08,02,30,12.30
2012,07,08,02,31,12.30
2012,07,08,02,32,12.30
2012,07,08,02,33,12.30
2012,07,08,02,34,12.30
2012,07,08,02,35,12.30
2012,07,08,02,36,12.20
2012,07,08,02,37,12.20
2012,07,08,02,38,12.20
2012,07,08,02,39,12.20
2012,07,08,02,40,12.20
2012,07,08,02,41,12.20
2012,07,08,02,42,12.20
2012,07,08,02,43,12.20
2012,07,08,02,44,12.20
2012,07,08,02,45,12.10
2012,07,08,02,46,12.10
2012,07,08,02,47,12.10
2012,07,08,02,48,12.10
2012,07,08,02,49,12.10
2012,07,08,02,50,12.00
2012,07,08,02,51,12.00
2012,07,08,02,52,12.00
2012,07,08,02,53,12.00
2012,07,08,02,54,12.00
2012,07,08,02,55,12.00
2012,07,08,02,56,12.00
2012,07,08,02,57,12.00
2012,07,08,02,58,12.00
2012,07,08,02,59,12.00
2012,07,08,03,00,12.00
2012,07,08,03,01,12.00
2012,07,08,03,02,12.00
2012,07,08,03,03,12.00
2012,07,08,03,04,12.00
2012,07,08,03,05,12.00
2012,07,08,03,06,12.00
2012,07,08,03,07,12.00
2012,07,08,03,08,12.00
2012,07,08,03,09,12.00
2012,07,08,03,10,11.90
2012,07,08,03,11,11.90
2012,07,08,03,12,11.90
2012,07,08,03,13,11.90
2012,07,08,03,14,11.90
2012,07,08,03,15,11.90
2012,07,08,03,16,12.00
2012,07,08,03,17,12.00
2012,07,08,03,18,12.00
2012,07,08,03,19,12.00
2012,07,08,03,20,12.00
2012,07,08,03,21,12.00
2012,07,08,03,22,12.00
2012,07,08,03,23,11.90
2012,07,08,03,24,11.90
2012,07,08,03,25,11.90
2012,07,08,03,26,11.90
2012,07,08,03,27,11.80
2012,07,08,03,28,11.80
2012,07,08,03,29,11.90
2012,07,08,03,30,11.90
2012,07,08,03,31,11.90
2012,07,08,03,32,11.90
2012,07,08,03,33,11.90
2012,07,08,03,34,11.90
2012,07,08,03,35,11.90
2012,07,08,03,36,11.90
2012,07,08,03,37,11.90
2012,07,08,03,38,11.90
2012,07,08,03,39,11.90
2012,07,08,03,40,11.90
2012,07,08,03,41,11.90
2012,07,08,03,42,11.80
2012,07,08,03,43,11.80
2012,07,08,03,44,11.80
2012,07,08,03,45,11.80
2012,07,08,03,46,11.70
2012,07,08,03,47,11.70
2012,07,08,03,48,11.70
2012,07,08,03,49,11.60
2012,07,08,03,50,11.60
2012,07,08,03,51,11.60
2012,07,08,03,52,11.60
2012,07,08,03,53,11.60
2012,07,08,03,54,11.60
2012,07,08,03,55,11.60
2012,07,08,03,56,11.60
2012,07,08,03,57,11.60
2012,07,08,03,58,11.60
2012,07,08,03,59,11.60
2012,07,08,04,00,11.60
2012,07,08,04,01,11.70
2012,07,08,04,02,11.70
2012,07,08,04,03,11.70
2012,07,08,04,04,11.70
2012,07,08,04,05,11.70
2012,07,08,04,06,11.60
2012,07,08,04,07,11.60
2012,07,08,04,08,11.60
2012,07,08,04,09,11.60
2012,07,08,04,10,11.50
2012,07,08,04,11,11.50
2012,07,08,04,12,11.50
2012,07,08,04,13,11.50
2012,07,08,04,14,11.40
2012,07,08,04,15,11.40
2012,07,08,04,16,11.40
2012,07,08,04,17,11.40
2012,07,08,04,18,11.40
2012,07,08,04,19,11.40
2012,07,08,04,20,11.40
2012,07,08,04,21,11.50
2012,07,08,04,22,11.50
2012,07,08,04,23,11.50
2012,07,08,04,24,11.60
2012,07,08,04,25,11.60
2012,07,08,04,26,11.60
2012,07,08,04,27,11.60
2012,07,08,04,28,11.60
2012,07,08,04,29,11.60
2012,07,08,04,30,11.60
2012,07,08,04,31,11.60
2012,07,08,04,32,11.60
2012,07,08,04,33,11.60
2012,07,08,04,34,11.60
2012,07,08,04,35,11.60
2012,07,08,04,36,11.60
2012,07,08,04,37,11.50
2012,07,08,04,38,11.50
2012,07,08,04,39,11.50
2012,07,08,04,40,11.40
2012,07,08,04,41,11.40
2012,07,08,04,42,11.40
2012,07,08,04,43,11.40
2012,07,08,04,44,11.40
2012,07,08,04,45,11.40
2012,07,08,04,46,11.40
2012,07,08,04,47,11.40
2012,07,08,04,48,11.40
2012,07,08,04,49,11.40
2012,07,08,04,50,11.40
2012,07,08,04,51,11.40
2012,07,08,04,52,11.40
2012,07,08,04,53,11.30
2012,07,08,04,54,11.30
2012,07,08,04,55,11.30
2012,07,08,04,56,11.30
2012,07,08,04,57,11.40
2012,07,08,04,58,11.40
2012,07,08,04,59,11.40
2012,07,08,05,00,11.40
2012,07,08,05,01,11.50
2012,07,08,05,02,11.50
2012,07,08,05,03,11.50
2012,07,08,05,04,11.50
2012,07,08,05,05,11.40
2012,07,08,05,06,11.50
2012,07,08,05,07,11.50
2012,07,08,05,08,11.50
2012,07,08,05,09,11.60
2012,07,08,05,10,11.60
2012,07,08,05,11,11.60
2012,07,08,05,12,11.60
2012,07,08,05,13,11.60
2012,07,08,05,14,11.60
2012,07,08,05,15,11.60
2012,07,08,05,16,11.60
2012,07,08,05,17,11.60
2012,07,08,05,18,11.70
2012,07,08,05,19,11.70
2012,07,08,05,20,11.70
2012,07,08,05,21,11.70
2012,07,08,05,22,11.70
2012,07,08,05,23,11.70
2012,07,08,05,24,11.70
2012,07,08,05,25,11.70
2012,07,08,05,26,11.70
2012,07,08,05,27,11.60
2012,07,08,05,28,11.70
2012,07,08,05,29,11.70
2012,07,08,05,30,11.70
2012,07,08,05,31,11.70
2012,07,08,05,32,11.70
2012,07,08,05,33,11.70
2012,07,08,05,34,11.70
2012,07,08,05,35,11.60
2012,07,08,05,36,11.60
2012,07,08,05,37,11.60
2012,07,08,05,38,11.60
2012,07,08,05,39,11.60
2012,07,08,05,40,11.60
2012,07,08,05,41,11.60
2012,07,08,05,42,11.60
2012,07,08,05,43,11.60
2012,07,08,05,44,11.60
2012,07,08,05,45,11.70
2012,07,08,05,46,11.70
2012,07,08,05,47,11.70
2012,07,08,05,48,11.80
2012,07,08,05,49,11.80
2012,07,08,05,50,11.80
2012,07,08,05,51,11.80
2012,07,08,05,52,11.80
2012,07,08,05,53,11.80
2012,07,08,05,54,11.80
2012,07,08,05,55,11.80
2012,07,08,05,56,11.80
2012,07,08,05,57,11.80
2012,07,08,05,58,11.80
2012,07,08,05,59,11.90
2012,07,08,06,00,12.00
2012,07,08,06,01,12.00
2012,07,08,06,02,12.10
2012,07,08,06,03,12.10
2012,07,08,06,04,12.10
2012,07,08,06,05,12.20
2012,07,08,06,06,12.20
2012,07,08,06,07,12.20
2012,07,08,06,08,12.30
2012,07,08,06,09,12.30
2012,07,08,06,10,12.40
2012,07,08,06,11,12.40
2012,07,08,06,12,12.50
2012,07,08,06,13,12.50
2012,07,08,06,14,12.50
2012,07,08,06,15,12.60
2012,07,08,06,16,12.60
2012,07,08,06,17,12.60
2012,07,08,06,18,12.60
2012,07,08,06,19,12.70
2012,07,08,06,20,12.70
2012,07,08,06,21,12.70
2012,07,08,06,22,12.70
2012,07,08,06,23,12.70
2012,07,08,06,24,12.70
2012,07,08,06,25,12.70
2012,07,08,06,26,12.70
2012,07,08,06,27,12.70
2012,07,08,06,28,12.80
2012,07,08,06,29,12.80
2012,07,08,06,30,12.80
2012,07,08,06,31,12.80
2012,07,08,06,32,12.90
2012,07,08,06,33,12.90
2012,07,08,06,34,12.90
2012,07,08,06,35,13.00
2012,07,08,06,36,13.10
2012,07,08,06,37,13.20
2012,07,08,06,38,13.20
2012,07,08,06,39,13.30
2012,07,08,06,40,13.30
2012,07,08,06,41,13.40
2012,07,08,06,42,13.40
2012,07,08,06,43,13.50
2012,07,08,06,44,13.50
2012,07,08,06,45,13.60
2012,07,08,06,46,13.60
2012,07,08,06,47,13.70
2012,07,08,06,48,13.70
2012,07,08,06,49,13.80
2012,07,08,06,50,14.00
2012,07,08,06,51,14.10
2012,07,08,06,52,14.20
2012,07,08,06,53,14.30
2012,07,08,06,54,14.40
2012,07,08,06,55,14.50
2012,07,08,06,56,14.60
2012,07,08,06,57,14.80
2012,07,08,06,58,14.90
2012,07,08,06,59,15.00
2012,07,08,07,00,15.00
2012,07,08,07,01,15.00
2012,07,08,07,02,15.00
2012,07,08,07,03,15.10
2012,07,08,07,04,15.20
2012,07,08,07,05,15.30
2012,07,08,07,06,15.30
2012,07,08,07,07,15.40
2012,07,08,07,08,15.50
2012,07,08,07,09,15.60
2012,07,08,07,10,15.60
2012,07,08,07,11,15.70
2012,07,08,07,12,15.80
2012,07,08,07,13,15.90
2012,07,08,07,14,16.00
2012,07,08,07,15,16.10
2012,07,08,07,16,16.10
2012,07,08,07,17,16.20
2012,07,08,07,18,16.30
2012,07,08,07,19,16.40
2012,07,08,07,20,16.50
2012,07,08,07,21,16.60
2012,07,08,07,22,16.70
2012,07,08,07,23,16.80
2012,07,08,07,24,17.00
2012,07,08,07,25,17.10
2012,07,08,07,26,17.20
2012,07,08,07,27,17.30
2012,07,08,07,28,17.40
2012,07,08,07,29,17.50
2012,07,08,07,30,17.60
2012,07,08,07,31,17.70
2012,07,08,07,32,17.80
2012,07,08,07,33,17.80
2012,07,08,07,34,17.90
2012,07,08,07,35,18.00
2012,07,08,07,36,18.10
2012,07,08,07,37,18.10
2012,07,08,07,38,18.20
2012,07,08,07,39,18.20
2012,07,08,07,40,18.30
2012,07,08,07,41,18.30
2012,07,08,07,42,18.40
2012,07,08,07,43,18.40
2012,07,08,07,44,18.40
2012,07,08,07,45,18.50
2012,07,08,07,46,18.50
2012,07,08,07,47,18.50
2012,07,08,07,48,18.60
2012,07,08,07,49,18.60
2012,07,08,07,50,18.60
2012,07,08,07,51,18.70
2012,07,08,07,52,18.70
2012,07,08,07,53,18.70
2012,07,08,07,54,18.70
2012,07,08,07,55,18.80
2012,07,08,07,56,18.80
2012,07,08,07,57,18.80
2012,07,08,07,58,18.80
2012,07,08,07,59,18.90
2012,07,08,08,00,18.90
2012,07,08,08,01,18.90
2012,07,08,08,02,18.90
2012,07,08,08,03,18.90
2012,07,08,08,04,19.00
2012,07,08,08,05,19.10
2012,07,08,08,06,19.10
2012,07,08,08,07,19.10
2012,07,08,08,08,19.20
2012,07,08,08,09,19.20
2012,07,08,08,10,19.20
2012,07,08,08,11,19.20
2012,07,08,08,12,19.10
2012,07,08,08,13,19.10
2012,07,08,08,14,19.10
2012,07,08,08,15,19.20
2012,07,08,08,16,19.20
2012,07,08,08,17,19.20
2012,07,08,08,18,19.20
2012,07,08,08,19,19.20
2012,07,08,08,20,19.20
2012,07,08,08,21,19.20
2012,07,08,08,22,19.20
2012,07,08,08,23,19.20
2012,07,08,08,24,19.20
2012,07,08,08,25,19.20
2012,07,08,08,26,19.20
2012,07,08,08,27,19.20
2012,07,08,08,28,19.20
2012,07,08,08,29,19.20
2012,07,08,08,30,19.20
2012,07,08,08,31,19.20
2012,07,08,08,32,19.20
2012,07,08,08,33,19.30
2012,07,08,08,34,19.30
2012,07,08,08,35,19.30
2012,07,08,08,36,19.30
2012,07,08,08,37,19.30
2012,07,08,08,38,19.30
2012,07,08,08,39,19.40
2012,07,08,08,40,19.40
2012,07,08,08,41,19.40
2012,07,08,08,42,19.40
2012,07,08,08,43,19.40
2012,07,08,08,44,19.40
2012,07,08,08,45,19.40
2012,07,08,08,46,19.40
2012,07,08,08,47,19.40
2012,07,08,08,48,19.40
2012,07,08,08,49,19.40
2012,07,08,08,50,19.40
2012,07,08,08,51,19.40
2012,07,08,08,52,19.40
2012,07,08,08,53,19.40
2012,07,08,08,54,19.40
2012,07,08,08,55,19.40
2012,07,08,08,56,19.40
2012,07,08,08,57,19.40
2012,07,08,08,58,19.40
2012,07,08,08,59,19.50
2012,07,08,09,00,19.50
2012,07,08,09,01,19.50
2012,07,08,09,02,19.50
2012,07,08,09,03,19.60
2012,07,08,09,04,19.60
2012,07,08,09,05,19.70
2012,07,08,09,06,19.80
2012,07,08,09,07,19.80
2012,07,08,09,08,19.90
2012,07,08,09,09,19.90
2012,07,08,09,10,19.90
2012,07,08,09,11,19.90
2012,07,08,09,12,19.90
2012,07,08,09,13,19.90
2012,07,08,09,14,20.00
2012,07,08,09,15,20.00
2012,07,08,09,16,20.10
2012,07,08,09,17,20.10
2012,07,08,09,18,20.20
2012,07,08,09,19,20.20
2012,07,08,09,20,20.30
2012,07,08,09,21,20.30
2012,07,08,09,22,20.30
2012,07,08,09,23,20.30
2012,07,08,09,24,20.30
2012,07,08,09,25,20.30
2012,07,08,09,26,20.30
2012,07,08,09,27,20.30
2012,07,08,09,28,20.40
2012,07,08,09,29,20.40
2012,07,08,09,30,20.40
2012,07,08,09,31,20.40
2012,07,08,09,32,20.40
2012,07,08,09,33,20.40
2012,07,08,09,34,20.50
2012,07,08,09,35,20.50
2012,07,08,09,36,20.60
2012,07,08,09,37,20.60
2012,07,08,09,38,20.70
2012,07,08,09,39,20.80
2012,07,08,09,40,20.80
2012,07,08,09,41,20.80
2012,07,08,09,42,20.80
2012,07,08,09,43,20.80
2012,07,08,09,44,20.80
2012,07,08,09,45,20.90
2012,07,08,09,46,20.90
2012,07,08,09,47,21.00
2012,07,08,09,48,21.00
2012,07,08,09,49,21.10
2012,07,08,09,50,21.10
2012,07,08,09,51,21.10
2012,07,08,09,52,21.20
2012,07,08,09,53,21.20
2012,07,08,09,54,21.20
2012,07,08,09,55,21.30
2012,07,08,09,56,21.30
2012,07,08,09,57,21.40
2012,07,08,09,58,21.40
2012,07,08,09,59,21.50
2012,07,08,10,00,21.50
2012,07,08,10,01,21.60
2012,07,08,10,02,21.70
2012,07,08,10,03,21.70
2012,07,08,10,04,21.80
2012,07,08,10,05,21.80
2012,07,08,10,06,21.80
2012,07,08,10,07,21.80
2012,07,08,10,08,21.80
2012,07,08,10,09,21.80
2012,07,08,10,10,21.80
2012,07,08,10,11,21.80
2012,07,08,10,12,21.70
2012,07,08,10,13,21.70
2012,07,08,10,14,21.80
2012,07,08,10,15,21.80
2012,07,08,10,16,21.80
2012,07,08,10,17,21.80
2012,07,08,10,18,21.90
2012,07,08,10,19,21.90
2012,07,08,10,20,21.90
2012,07,08,10,21,21.90
2012,07,08,10,22,22.00
2012,07,08,10,23,22.00
2012,07,08,10,24,22.10
2012,07,08,10,25,22.10
2012,07,08,10,26,22.00
2012,07,08,10,27,22.00
2012,07,08,10,28,22.00
2012,07,08,10,29,21.90
2012,07,08,10,30,21.90
2012,07,08,10,31,21.90
2012,07,08,10,32,21.90
2012,07,08,10,33,21.90
2012,07,08,10,34,21.90
2012,07,08,10,35,22.00
2012,07,08,10,36,22.00
2012,07,08,10,37,22.10
2012,07,08,10,38,22.10
2012,07,08,10,39,22.20
2012,07,08,10,40,22.30
2012,07,08,10,41,22.20
2012,07,08,10,42,22.20
2012,07,08,10,43,22.20
2012,07,08,10,44,22.20
2012,07,08,10,45,22.20
2012,07,08,10,46,22.20
2012,07,08,10,47,22.20
2012,07,08,10,48,22.20
2012,07,08,10,49,22.10
2012,07,08,10,50,22.10
2012,07,08,10,51,22.10
2012,07,08,10,52,22.10
2012,07,08,10,53,22.10
2012,07,08,10,54,22.10
2012,07,08,10,55,22.10
2012,07,08,10,56,22.20
2012,07,08,10,57,22.20
2012,07,08,10,58,22.20
2012,07,08,10,59,22.20
2012,07,08,11,00,22.30
2012,07,08,11,01,22.30
2012,07,08,11,02,22.40
2012,07,08,11,03,22.50
2012,07,08,11,04,22.60
2012,07,08,11,05,22.60
2012,07,08,11,06,22.70
2012,07,08,11,07,22.70
2012,07,08,11,08,22.60
2012,07,08,11,09,22.50
2012,07,08,11,10,22.40
2012,07,08,11,11,22.40
2012,07,08,11,12,22.40
2012,07,08,11,13,22.40
2012,07,08,11,14,22.50
2012,07,08,11,15,22.50
2012,07,08,11,16,22.50
2012,07,08,11,17,22.60
2012,07,08,11,18,22.60
2012,07,08,11,19,22.70
2012,07,08,11,20,22.80
2012,07,08,11,21,22.80
2012,07,08,11,22,22.80
2012,07,08,11,23,22.80
2012,07,08,11,24,22.80
2012,07,08,11,25,22.80
2012,07,08,11,26,22.80
2012,07,08,11,27,22.90
2012,07,08,11,28,22.80
2012,07,08,11,29,22.80
2012,07,08,11,30,22.80
2012,07,08,11,31,22.90
2012,07,08,11,32,22.90
2012,07,08,11,33,23.00
2012,07,08,11,34,23.10
2012,07,08,11,35,23.10
2012,07,08,11,36,23.10
2012,07,08,11,37,23.20
2012,07,08,11,38,23.20
2012,07,08,11,39,23.20
2012,07,08,11,40,23.30
2012,07,08,11,41,23.30
2012,07,08,11,42,23.30
2012,07,08,11,43,23.30
2012,07,08,11,44,23.40
2012,07,08,11,45,23.40
2012,07,08,11,46,23.50
2012,07,08,11,47,23.50
2012,07,08,11,48,23.50
2012,07,08,11,49,23.50
2012,07,08,11,50,23.50
2012,07,08,11,51,23.60
2012,07,08,11,52,23.60
2012,07,08,11,53,23.70
2012,07,08,11,54,23.80
2012,07,08,11,55,23.90
2012,07,08,11,56,23.90
2012,07,08,11,57,24.00
2012,07,08,11,58,24.10
2012,07,08,11,59,24.20
2012,07,08,12,00,24.20
2012,07,08,12,01,24.20
2012,07,08,12,02,24.30
2012,07,08,12,03,24.40
2012,07,08,12,04,24.50
2012,07,08,12,05,24.60
2012,07,08,12,06,24.70
2012,07,08,12,07,24.80
2012,07,08,12,08,24.90
2012,07,08,12,09,25.00
2012,07,08,12,10,25.00
2012,07,08,12,11,25.00
2012,07,08,12,12,24.90
2012,07,08,12,13,24.90
2012,07,08,12,14,25.00
2012,07,08,12,15,25.00
2012,07,08,12,16,25.10
2012,07,08,12,17,25.00
2012,07,08,12,18,24.90
2012,07,08,12,19,24.80
2012,07,08,12,20,24.70
2012,07,08,12,21,24.60
2012,07,08,12,22,24.50
2012,07,08,12,23,24.30
2012,07,08,12,24,24.20
2012,07,08,12,25,24.10
2012,07,08,12,26,24.10
2012,07,08,12,27,24.00
2012,07,08,12,28,23.90
2012,07,08,12,29,23.90
2012,07,08,12,30,24.00
2012,07,08,12,31,24.10
2012,07,08,12,32,24.20
2012,07,08,12,33,24.30
2012,07,08,12,34,24.30
2012,07,08,12,35,24.40
2012,07,08,12,36,24.40
2012,07,08,12,37,24.50
2012,07,08,12,38,24.60
2012,07,08,12,39,24.60
2012,07,08,12,40,24.60
2012,07,08,12,41,24.60
2012,07,08,12,42,24.60
2012,07,08,12,43,24.60
2012,07,08,12,44,24.60
2012,07,08,12,45,24.40
2012,07,08,12,46,24.40
2012,07,08,12,47,24.40
2012,07,08,12,48,24.40
2012,07,08,12,49,24.40
2012,07,08,12,50,24.20
2012,07,08,12,51,24.10
2012,07,08,12,52,24.10
2012,07,08,12,53,24.20
2012,07,08,12,54,24.20
2012,07,08,12,55,24.20
2012,07,08,12,56,24.20
2012,07,08,12,57,24.20
2012,07,08,12,58,24.30
2012,07,08,12,59,24.20
2012,07,08,13,00,24.20
2012,07,08,13,01,24.20
2012,07,08,13,02,24.30
2012,07,08,13,03,24.40
2012,07,08,13,04,24.40
2012,07,08,13,05,24.40
2012,07,08,13,06,24.50
2012,07,08,13,07,24.60
2012,07,08,13,08,24.60
2012,07,08,13,09,24.60
2012,07,08,13,10,24.60
2012,07,08,13,11,24.70
2012,07,08,13,12,24.70
2012,07,08,13,13,24.90
2012,07,08,13,14,24.90
2012,07,08,13,15,24.90
2012,07,08,13,16,24.90
2012,07,08,13,17,24.80
2012,07,08,13,18,24.80
2012,07,08,13,19,24.80
2012,07,08,13,20,24.90
2012,07,08,13,21,24.90
2012,07,08,13,22,25.00
2012,07,08,13,23,24.90
2012,07,08,13,24,25.00
2012,07,08,13,25,25.00
2012,07,08,13,26,25.10
2012,07,08,13,27,25.00
2012,07,08,13,28,25.00
2012,07,08,13,29,24.90
2012,07,08,13,30,24.80
2012,07,08,13,31,24.80
2012,07,08,13,32,24.60
2012,07,08,13,33,24.50
2012,07,08,13,34,24.40
2012,07,08,13,35,24.30
2012,07,08,13,36,24.40
2012,07,08,13,37,24.50
2012,07,08,13,38,24.60
2012,07,08,13,39,24.50
2012,07,08,13,40,24.40
2012,07,08,13,41,24.40
2012,07,08,13,42,24.40
2012,07,08,13,43,24.40
2012,07,08,13,44,24.50
2012,07,08,13,45,24.40
2012,07,08,13,46,24.40
2012,07,08,13,47,24.40
2012,07,08,13,48,24.30
2012,07,08,13,49,24.30
2012,07,08,13,50,24.20
2012,07,08,13,51,24.10
2012,07,08,13,52,24.00
2012,07,08,13,53,23.80
2012,07,08,13,54,23.70
2012,07,08,13,55,23.60
2012,07,08,13,56,23.40
2012,07,08,13,57,23.40
2012,07,08,13,58,23.30
2012,07,08,13,59,23.30
2012,07,08,14,00,23.30
2012,07,08,14,01,23.30
2012,07,08,14,02,23.30
2012,07,08,14,03,23.40
2012,07,08,14,04,23.40
2012,07,08,14,05,23.50
2012,07,08,14,06,23.60
2012,07,08,14,07,23.70
2012,07,08,14,08,23.80
2012,07,08,14,09,23.80
2012,07,08,14,10,23.80
2012,07,08,14,11,23.70
2012,07,08,14,12,23.60
2012,07,08,14,13,23.40
2012,07,08,14,14,23.40
2012,07,08,14,15,23.40
2012,07,08,14,16,23.40
2012,07,08,14,17,23.40
2012,07,08,14,18,23.50
2012,07,08,14,19,23.60
2012,07,08,14,20,23.70
2012,07,08,14,21,23.80
2012,07,08,14,22,23.90
2012,07,08,14,23,24.00
2012,07,08,14,24,24.00
2012,07,08,14,25,24.10
2012,07,08,14,26,24.20
2012,07,08,14,27,24.20
2012,07,08,14,28,24.30
2012,07,08,14,29,24.30
2012,07,08,14,30,24.30
2012,07,08,14,31,24.30
2012,07,08,14,32,24.30
2012,07,08,14,33,24.20
2012,07,08,14,34,24.10
2012,07,08,14,35,24.10
2012,07,08,14,36,24.00
2012,07,08,14,37,23.80
2012,07,08,14,38,23.60
2012,07,08,14,39,23.40
2012,07,08,14,40,23.20
2012,07,08,14,41,23.10
2012,07,08,14,42,23.10
2012,07,08,14,43,23.10
2012,07,08,14,44,23.10
2012,07,08,14,45,23.10
2012,07,08,14,46,22.90
2012,07,08,14,47,22.80
2012,07,08,14,48,22.70
2012,07,08,14,49,22.70
2012,07,08,14,50,22.70
2012,07,08,14,51,22.80
2012,07,08,14,52,22.90
2012,07,08,14,53,23.00
2012,07,08,14,54,23.10
2012,07,08,14,55,23.00
2012,07,08,14,56,22.90
2012,07,08,14,57,22.80
2012,07,08,14,58,22.70
2012,07,08,14,59,22.60
2012,07,08,15,00,22.50
2012,07,08,15,01,22.40
2012,07,08,15,02,22.30
2012,07,08,15,03,22.20
2012,07,08,15,04,22.10
2012,07,08,15,05,22.00
2012,07,08,15,06,21.90
2012,07,08,15,07,21.80
2012,07,08,15,08,21.90
2012,07,08,15,09,21.90
2012,07,08,15,10,22.00
2012,07,08,15,11,22.00
2012,07,08,15,12,21.90
2012,07,08,15,13,21.80
2012,07,08,15,14,21.80
2012,07,08,15,15,21.70
2012,07,08,15,16,21.60
2012,07,08,15,17,21.40
2012,07,08,15,18,21.40
2012,07,08,15,19,21.30
2012,07,08,15,20,21.30
2012,07,08,15,21,21.40
2012,07,08,15,22,21.40
2012,07,08,15,23,21.50
2012,07,08,15,24,21.60
2012,07,08,15,25,21.70
2012,07,08,15,26,21.80
2012,07,08,15,27,22.00
2012,07,08,15,28,22.10
2012,07,08,15,29,22.30
2012,07,08,15,30,22.50
2012,07,08,15,31,22.70
2012,07,08,15,32,22.80
2012,07,08,15,33,22.90
2012,07,08,15,34,23.00
2012,07,08,15,35,23.00
2012,07,08,15,36,22.80
2012,07,08,15,37,22.60
2012,07,08,15,38,22.50
2012,07,08,15,39,22.30
2012,07,08,15,40,22.00
2012,07,08,15,41,21.70
2012,07,08,15,42,21.50
2012,07,08,15,43,21.30
2012,07,08,15,44,21.10
2012,07,08,15,45,21.00
2012,07,08,15,46,20.90
2012,07,08,15,47,20.80
2012,07,08,15,48,20.70
2012,07,08,15,49,20.60
2012,07,08,15,50,20.60
2012,07,08,15,51,20.60
2012,07,08,15,52,20.60
2012,07,08,15,53,20.60
2012,07,08,15,54,20.60
2012,07,08,15,55,20.60
2012,07,08,15,56,20.50
2012,07,08,15,57,20.30
2012,07,08,15,58,20.20
2012,07,08,15,59,20.00
2012,07,08,16,00,19.90
2012,07,08,16,01,19.80
2012,07,08,16,02,19.70
2012,07,08,16,03,19.70
2012,07,08,16,04,19.70
2012,07,08,16,05,19.70
2012,07,08,16,06,19.80
2012,07,08,16,07,19.90
2012,07,08,16,08,20.00
2012,07,08,16,09,20.10
2012,07,08,16,10,20.20
2012,07,08,16,11,20.30
2012,07,08,16,12,20.40
2012,07,08,16,13,20.40
2012,07,08,16,14,20.50
2012,07,08,16,15,20.60
2012,07,08,16,16,20.70
2012,07,08,16,17,20.80
2012,07,08,16,18,20.80
2012,07,08,16,19,20.90
2012,07,08,16,20,21.00
2012,07,08,16,21,21.00
2012,07,08,16,22,21.00
2012,07,08,16,23,21.00
2012,07,08,16,24,21.00
2012,07,08,16,25,21.00
2012,07,08,16,26,21.00
2012,07,08,16,27,20.90
2012,07,08,16,28,20.90
2012,07,08,16,29,20.90
2012,07,08,16,30,21.00
2012,07,08,16,31,21.10
2012,07,08,16,32,21.10
2012,07,08,16,33,21.20
2012,07,08,16,34,21.20
2012,07,08,16,35,21.30
2012,07,08,16,36,21.30
2012,07,08,16,37,21.30
2012,07,08,16,38,21.30
2012,07,08,16,39,21.20
2012,07,08,16,40,21.10
2012,07,08,16,41,21.00
2012,07,08,16,42,21.00
2012,07,08,16,43,20.90
2012,07,08,16,44,20.90
2012,07,08,16,45,20.80
2012,07,08,16,46,20.80
2012,07,08,16,47,20.80
2012,07,08,16,48,20.80
2012,07,08,16,49,20.80
2012,07,08,16,50,20.90
2012,07,08,16,51,20.90
2012,07,08,16,52,21.00
2012,07,08,16,53,21.10
2012,07,08,16,54,21.10
2012,07,08,16,55,21.20
2012,07,08,16,56,21.30
2012,07,08,16,57,21.30
2012,07,08,16,58,21.30
2012,07,08,16,59,21.20
2012,07,08,17,00,21.20
2012,07,08,17,01,21.20
2012,07,08,17,02,21.30
2012,07,08,17,03,21.30
2012,07,08,17,04,21.30
2012,07,08,17,05,21.30
2012,07,08,17,06,21.30
2012,07,08,17,07,21.20
2012,07,08,17,08,21.10
2012,07,08,17,09,20.90
2012,07,08,17,10,20.80
2012,07,08,17,11,20.80
2012,07,08,17,12,20.90
2012,07,08,17,13,21.00
2012,07,08,17,14,21.20
2012,07,08,17,15,21.40
2012,07,08,17,16,21.70
2012,07,08,17,17,21.80
2012,07,08,17,18,21.90
2012,07,08,17,19,22.00